SHENZHOU 14

Last updated on Sun Dec 04 2022 00:02:07 GMT+0000 (Coordinated Universal Time)

1 52797U 22060A 22336.59056537 .00023448 00000+0 29371-3 0 9991 2 52797 41.4756 273.4508 0006106 0.3777 176.1506 15.59201701 91091
UTC large
Height (km)
Speed (km/s)
/
Latitude / Longitude
Inclination (degrees)
Orbital Period (minutes)
Azimuth
Elevation
Range (km)
Doppler Factor

Next 0 passes for location: London (51.5072 / 0.1276)

Sorry there are no passes over London.